Etusivu
METAR-TAF:

METAR-TAF

Lentoasemat :

Draugen, Norja

Leveyspiiri: 64-21-20N, Pituuspiiri: 007-47-30E, korkeus merenpinnasta: 0 m

Tämänhetkinen sää

Tämä raportti tehtiin 13 minuuttia sitten, kello 18.20 UTC
Tuuli 5 kn lounaasta
Lämpötila 14°C
Kosteus 82%
Ilmanpaine 1022 hPa

METAR: ENDR 221820Z AUTO 22005KT 14/11 Q1022

Aika: 20:33 (18:33 UTC)


TAF: puuttuu

Säähavainnot ja -ennusteet yli 4000 lentoasemalta (METAR- ja TAF-raportit).

Käytössä olevat sääasemat on merkitty karttaan keltaisilla ja punaisilla pisteillä.

Aseta hiiri pisteen päälle nähdäksesi sääaseman nimen.

Klikkaa sitten nähdäksesi säähavainnot ja -ennusteet.

Kartan vaihtaminen: klikkaa mustalla rastilla varustettuja vihreitä pisteitä, niin voit zoomata sisään; viivalla varustettua vihreää pistettä, niin voit zoomata ulos tai vihreitä nuolia, niin pääset viereisille kartoille.


METAR-TAF: